Grand Canyon, AZ

2:51 PM MST on May 29, 2017 (GMT -0700)
Grand Canyon National Park

Weather History for KGCN - November, 2011

Change the Weather History Date:

Thursday, November 24, 2011

  Actual Average Record
Temperature  
Mean Temperature 36 °F -  
Max Temperature 52 °F 47 °F 64 °F (1981)
Min Temperature 19 °F 17 °F 1 °F (1999)
Degree Days  
Heating Degree Days 30    
Moisture  
Dew Point 24 °F    
Average Humidity 68    
Maximum Humidity 96    
Minimum Humidity 30    
Precipitation  
Precipitation 0.00 in - - ()
Sea Level Pressure  
Sea Level Pressure 30.04 in    
Wind  
Wind Speed 6 mph (SSE)    
Max Wind Speed 16 mph    
Max Gust Speed 22 mph    
Visibility 10 miles    
Events Rain    
Averages and records for this station are not official NWS values.
T = Trace of Precipitation, MM = Missing Value Source: NWS Daily Summary

Daily Weather History Graph

Daily Weather History Graph

Search for Another Location

Airport or City:

Trip Planner

Search our weather history database for the weather conditions in past years. The results will help you decide how hot, cold, wet, or windy it might be!

Date:

Astronomy

Nov. 24, 2011 Rise Set
Actual Time 7:13 AM MST 5:16 PM MST
Civil Twilight 6:45 AM MST 5:44 PM MST
Nautical Twilight 6:14 AM MST 6:15 PM MST
Astronomical Twilight 5:43 AM MST 6:46 PM MST
Moon 6:35 AM MST (11/24) 4:51 PM MST (11/24)
Length of Visible Light 10h 58m
Length of Day
10h 02m
Waning Crescent, 0% of the Moon is Illuminated
Nov 24
Waning Crescent
Nov 24
New
Dec 2
First Quarter
Dec 10
Full
Dec 17
Last Quarter

Hourly Weather History & Observations

Time (MST) Temp. Windchill Dew Point Humidity Pressure Visibility Wind Dir Wind Speed Gust Speed Precip Events Conditions
12:54 AM 25.0 °F 16.3 °F 19.0 °F 78% 30.03 in 10.0 mi NE 8.1 mph - N/A   Clear
1:54 AM 24.1 °F 18.2 °F 18.0 °F 77% 30.01 in 10.0 mi ENE 4.6 mph - N/A   Clear
2:54 AM 21.9 °F 15.7 °F 17.1 °F 82% 30.02 in 10.0 mi ENE 4.6 mph - N/A   Clear
3:54 AM 21.9 °F 13.4 °F 17.1 °F 82% 30.00 in 10.0 mi NE 6.9 mph - N/A   Clear
4:54 AM 21.0 °F - 17.1 °F 85% 30.02 in 10.0 mi Calm Calm - N/A   Clear
5:54 AM 19.9 °F 14.9 °F 17.1 °F 89% 30.09 in 10.0 mi ENE 3.5 mph - N/A   Clear
6:54 AM 19.9 °F 12.1 °F 17.1 °F 89% 30.14 in 10.0 mi NE 5.8 mph - N/A   Clear
7:54 AM 23.0 °F - 19.0 °F 85% 30.16 in 10.0 mi Calm Calm - N/A   Clear
8:54 AM 43.0 °F 37.7 °F 27.0 °F 53% 30.09 in 10.0 mi South 9.2 mph - N/A   Clear
9:54 AM 46.0 °F 42.5 °F 27.0 °F 47% 30.07 in 10.0 mi South 6.9 mph - N/A   Clear
10:54 AM 50.0 °F - 25.0 °F 38% 30.07 in 10.0 mi South 6.9 mph - N/A   Scattered Clouds
11:54 AM 50.0 °F - 21.9 °F 33% 30.05 in 10.0 mi SSW 10.4 mph - N/A   Partly Cloudy
1:54 PM 52.0 °F - 21.0 °F 30% 30.00 in 10.0 mi SSW 16.1 mph 21.9 mph N/A   Clear
2:54 PM 50.0 °F - 24.1 °F 36% 30.00 in 10.0 mi SSW 13.8 mph - N/A   Clear
3:54 PM 50.0 °F - 25.0 °F 38% 30.00 in 10.0 mi SSW 10.4 mph - N/A   Mostly Cloudy
4:54 PM 48.0 °F - 25.0 °F 41% 29.99 in 10.0 mi SW 10.4 mph - N/A   Overcast
5:54 PM 41.0 °F 38.0 °F 23.0 °F 49% 30.02 in 10.0 mi SSW 4.6 mph - N/A   Clear
6:54 PM 32.0 °F - 21.9 °F 66% 30.07 in 10.0 mi Calm Calm - N/A   Overcast
7:54 PM 37.0 °F - 25.0 °F 62% 30.07 in 10.0 mi Calm Calm - N/A   Overcast
8:54 PM 39.9 °F 37.8 °F 34.0 °F 79% 29.97 in 7.0 mi South 3.5 mph - 0.00 in Rain Light Rain
9:16 PM 39.2 °F - 35.6 °F 87% 30.07 in 7.0 mi Calm Calm - 0.00 in Rain Light Rain
9:32 PM 37.4 °F - 35.6 °F 93% 30.06 in 10.0 mi Calm Calm - 0.00 in Rain Light Rain
9:54 PM 37.4 °F - 35.6 °F 93% 30.07 in 10.0 mi Calm Calm - N/A   Overcast
10:54 PM 36.0 °F - 34.0 °F 93% 29.96 in 10.0 mi Calm Calm - N/A   Overcast
11:54 PM 28.9 °F - 28.0 °F 96% 29.99 in 7.0 mi Calm Calm - N/A   Partly Cloudy